Time,TemperatureF,DewpointF,PressureIn,WindDirection,WindDirectionDegrees,WindSpeedMPH,WindSpeedGustMPH,Humidity,HourlyPrecipIn,Conditions,Clouds,dailyrainin,SoftwareType,DateUTC
2013-11-20 00:12:00,33.0,21.0,30.35,East,81,1.0,-999.0,62,-99.99,,,-99.99,,2013-11-20 05:12:00,
2013-11-20 00:22:00,33.0,22.0,30.35,South,170,0.0,-999.0,63,-99.99,,,-99.99,,2013-11-20 05:22:00,
2013-11-20 00:43:00,33.0,22.0,30.35,NNW,338,1.0,-999.0,64,-99.99,,,-99.99,,2013-11-20 05:43:00,
2013-11-20 00:52:00,33.0,22.0,30.36,NW,313,1.0,-999.0,63,-99.99,,,-99.99,,2013-11-20 05:52:00,
2013-11-20 01:12:00,33.0,22.0,30.36,NW,304,1.0,-999.0,63,-99.99,,,-99.99,,2013-11-20 06:12:00,
2013-11-20 01:22:00,33.0,22.0,30.36,North,349,1.0,-999.0,63,-99.99,,,-99.99,,2013-11-20 06:22:00,
2013-11-20 01:42:00,33.0,22.0,30.37,WNW,300,0.0,-999.0,63,-99.99,,,-99.99,,2013-11-20 06:42:00,
2013-11-20 01:52:00,32.0,21.0,30.37,NW,315,0.0,-999.0,64,-99.99,,,-99.99,,2013-11-20 06:52:00,
2013-11-20 02:22:00,32.0,21.0,30.39,NNW,328,1.0,-999.0,64,-99.99,,,-99.99,,2013-11-20 07:22:00,
2013-11-20 02:42:00,32.0,21.0,30.39,NNW,333,0.0,-999.0,64,-99.99,,,-99.99,,2013-11-20 07:42:00,
2013-11-20 02:52:00,32.0,22.0,30.40,NW,321,0.0,-999.0,65,-99.99,,,-99.99,,2013-11-20 07:52:00,
2013-11-20 03:22:00,31.0,21.0,30.40,NNW,338,0.0,-999.0,66,-99.99,,,-99.99,,2013-11-20 08:22:00,
2013-11-20 03:42:00,31.0,21.0,30.41,North,349,0.0,-999.0,66,-99.99,,,-99.99,,2013-11-20 08:42:00,
2013-11-20 03:52:00,30.0,20.0,30.41,WNW,290,1.0,-999.0,67,-99.99,,,-99.99,,2013-11-20 08:52:00,
2013-11-20 04:13:00,30.0,20.0,30.42,WNW,291,0.0,-999.0,67,-99.99,,,-99.99,,2013-11-20 09:13:00,
2013-11-20 04:22:00,30.0,20.0,30.42,WNW,298,1.0,-999.0,67,-99.99,,,-99.99,,2013-11-20 09:22:00,
2013-11-20 04:43:00,30.0,21.0,30.43,NW,325,0.0,-999.0,68,-99.99,,,-99.99,,2013-11-20 09:43:00,
2013-11-20 04:54:00,30.0,21.0,30.44,West,274,1.0,-999.0,69,-99.99,,,-99.99,,2013-11-20 09:54:00,
2013-11-20 05:13:00,29.0,20.0,30.44,West,276,0.0,-999.0,69,-99.99,,,-99.99,,2013-11-20 10:13:00,
2013-11-20 05:23:00,29.0,20.0,30.45,West,276,0.0,-999.0,70,-99.99,,,-99.99,,2013-11-20 10:23:00,
2013-11-20 05:43:00,29.0,20.0,30.45,West,276,0.0,-999.0,70,-99.99,,,-99.99,,2013-11-20 10:43:00,
2013-11-20 05:53:00,29.0,20.0,30.46,NNW,345,0.0,-999.0,70,-99.99,,,-99.99,,2013-11-20 10:53:00,
2013-11-20 06:22:00,29.0,20.0,30.47,North,8,0.0,-999.0,70,-99.99,,,-99.99,,2013-11-20 11:22:00,
2013-11-20 06:43:00,29.0,21.0,30.48,NNW,339,0.0,-999.0,71,-99.99,,,-99.99,,2013-11-20 11:43:00,
2013-11-20 06:52:00,29.0,21.0,30.48,ENE,68,0.0,-999.0,71,-99.99,,,-99.99,,2013-11-20 11:52:00,
2013-11-20 07:11:00,29.0,21.0,30.49,ENE,70,0.0,-999.0,72,-99.99,,,-99.99,,2013-11-20 12:11:00,
2013-11-20 07:22:00,29.0,21.0,30.50,ENE,66,0.0,-999.0,73,-99.99,,,-99.99,,2013-11-20 12:22:00,
2013-11-20 07:42:00,29.0,22.0,30.50,ENE,68,0.0,-999.0,74,-99.99,,,-99.99,,2013-11-20 12:42:00,
2013-11-20 07:52:00,28.0,21.0,30.50,ENE,68,0.0,-999.0,76,-99.99,,,-99.99,,2013-11-20 12:52:00,
2013-11-20 08:11:00,28.0,22.0,30.51,ENE,68,0.0,-999.0,78,-99.99,,,-99.99,,2013-11-20 13:11:00,
2013-11-20 08:22:00,28.0,22.0,30.51,ENE,63,0.0,-999.0,77,-99.99,,,-99.99,,2013-11-20 13:22:00,
2013-11-20 08:42:00,28.0,22.0,30.52,ENE,58,0.0,-999.0,78,-99.99,,,-99.99,,2013-11-20 13:42:00,
2013-11-20 08:52:00,29.0,23.0,30.52,East,81,0.0,-999.0,79,-99.99,,,-99.99,,2013-11-20 13:52:00,
2013-11-20 09:12:00,30.0,24.0,30.53,ENE,59,2.0,-999.0,79,-99.99,,,-99.99,,2013-11-20 14:12:00,
2013-11-20 09:22:00,30.0,23.0,30.54,ENE,75,1.0,-999.0,75,-99.99,,,-99.99,,2013-11-20 14:22:00,
2013-11-20 09:42:00,31.0,24.0,30.54,NNE,33,1.0,-999.0,74,-99.99,,,-99.99,,2013-11-20 14:42:00,
2013-11-20 09:52:00,32.0,23.0,30.55,SE,124,2.0,-999.0,68,-99.99,,,-99.99,,2013-11-20 14:52:00,
2013-11-20 10:11:00,32.0,22.0,30.55,ENE,72,3.0,-999.0,67,-99.99,,,-99.99,,2013-11-20 15:11:00,
2013-11-20 10:22:00,34.0,23.0,30.55,East,88,2.0,-999.0,64,-99.99,,,-99.99,,2013-11-20 15:22:00,
2013-11-20 10:43:00,34.0,21.0,30.56,ENE,62,5.0,-999.0,59,-99.99,,,-99.99,,2013-11-20 15:43:00,
2013-11-20 10:53:00,35.0,22.0,30.56,ESE,103,4.0,-999.0,59,-99.99,,,-99.99,,2013-11-20 15:53:00,
2013-11-20 11:23:00,35.0,20.0,30.55,NE,56,4.0,-999.0,54,-99.99,,,-99.99,,2013-11-20 16:23:00,
2013-11-20 11:43:00,36.0,20.0,30.55,East,84,5.0,-999.0,52,-99.99,,,-99.99,,2013-11-20 16:43:00,
2013-11-20 11:52:00,37.0,21.0,30.55,ENE,75,3.0,-999.0,53,-99.99,,,-99.99,,2013-11-20 16:52:00,
2013-11-20 12:12:00,38.0,21.0,30.55,East,82,3.0,-999.0,50,-99.99,,,-99.99,,2013-11-20 17:12:00,
2013-11-20 12:22:00,39.0,19.0,30.54,SE,131,3.0,-999.0,45,-99.99,,,-99.99,,2013-11-20 17:22:00,
2013-11-20 12:33:00,39.0,19.0,30.54,SE,131,3.0,-999.0,45,-99.99,,,-99.99,,2013-11-20 17:33:00,
2013-11-20 12:42:00,39.0,19.0,30.54,SE,131,3.0,-999.0,45,-99.99,,,-99.99,,2013-11-20 17:42:00,
2013-11-20 12:52:00,39.0,18.0,30.53,NE,40,4.0,-999.0,42,-99.99,,,-99.99,,2013-11-20 17:52:00,
2013-11-20 13:12:00,40.0,18.0,30.53,ENE,73,3.0,-999.0,41,-99.99,,,-99.99,,2013-11-20 18:12:00,
2013-11-20 13:22:00,40.0,18.0,30.52,East,86,4.0,-999.0,40,-99.99,,,-99.99,,2013-11-20 18:22:00,
2013-11-20 13:43:00,41.0,17.0,30.51,ENE,69,3.0,-999.0,37,-99.99,,,-99.99,,2013-11-20 18:43:00,
2013-11-20 13:52:00,41.0,17.0,30.50,ENE,78,5.0,-999.0,37,-99.99,,,-99.99,,2013-11-20 18:52:00,
2013-11-20 14:22:00,42.0,14.0,30.49,ESE,104,5.0,-999.0,31,-99.99,,,-99.99,,2013-11-20 19:22:00,
2013-11-20 14:42:00,42.0,14.0,30.49,East,91,4.0,-999.0,31,-99.99,,,-99.99,,2013-11-20 19:42:00,
2013-11-20 14:52:00,42.0,14.0,30.49,ENE,76,4.0,-999.0,32,-99.99,,,-99.99,,2013-11-20 19:52:00,
2013-11-20 15:11:00,42.0,12.0,30.49,East,97,4.0,-999.0,29,-99.99,,,-99.99,,2013-11-20 20:11:00,
2013-11-20 15:22:00,42.0,10.0,30.49,SW,217,4.0,-999.0,27,-99.99,,,-99.99,,2013-11-20 20:22:00,
2013-11-20 15:42:00,42.0,10.0,30.49,ENE,78,5.0,-999.0,27,-99.99,,,-99.99,,2013-11-20 20:42:00,
2013-11-20 15:52:00,42.0,11.0,30.50,ESE,104,4.0,-999.0,28,-99.99,,,-99.99,,2013-11-20 20:52:00,
2013-11-20 16:22:00,41.0,12.0,30.50,East,86,4.0,-999.0,30,-99.99,,,-99.99,,2013-11-20 21:22:00,
2013-11-20 16:43:00,41.0,12.0,30.50,ESE,120,3.0,-999.0,30,-99.99,,,-99.99,,2013-11-20 21:43:00,
2013-11-20 16:53:00,40.0,12.0,30.50,East,81,4.0,-999.0,31,-99.99,,,-99.99,,2013-11-20 21:53:00,
2013-11-20 17:13:00,39.0,13.0,30.51,East,82,3.0,-999.0,34,-99.99,,,-99.99,,2013-11-20 22:13:00,
2013-11-20 17:23:00,38.0,13.0,30.51,East,90,3.0,-999.0,35,-99.99,,,-99.99,,2013-11-20 22:23:00,
2013-11-20 17:42:00,38.0,14.0,30.52,SSE,153,2.0,-999.0,37,-99.99,,,-99.99,,2013-11-20 22:42:00,
2013-11-20 17:53:00,37.0,14.0,30.52,ESE,120,2.0,-999.0,38,-99.99,,,-99.99,,2013-11-20 22:53:00,
2013-11-20 18:12:00,37.0,14.0,30.52,ESE,103,1.0,-999.0,39,-99.99,,,-99.99,,2013-11-20 23:12:00,
2013-11-20 18:22:00,37.0,15.0,30.52,East,88,1.0,-999.0,40,-99.99,,,-99.99,,2013-11-20 23:22:00,
2013-11-20 18:43:00,36.0,15.0,30.52,East,83,2.0,-999.0,41,-99.99,,,-99.99,,2013-11-20 23:43:00,
2013-11-20 18:52:00,36.0,15.0,30.53,East,85,2.0,-999.0,42,-99.99,,,-99.99,,2013-11-20 23:52:00,
2013-11-20 19:11:00,36.0,16.0,30.53,East,83,2.0,-999.0,44,-99.99,,,-99.99,,2013-11-21 00:11:00,
2013-11-20 19:22:00,36.0,17.0,30.53,East,99,2.0,-999.0,46,-99.99,,,-99.99,,2013-11-21 00:22:00,
2013-11-20 19:42:00,36.0,18.0,30.53,East,89,2.0,-999.0,47,-99.99,,,-99.99,,2013-11-21 00:42:00,
2013-11-20 19:52:00,36.0,19.0,30.53,ESE,105,1.0,-999.0,49,-99.99,,,-99.99,,2013-11-21 00:52:00,
2013-11-20 20:11:00,35.0,18.0,30.53,SE,131,1.0,-999.0,50,-99.99,,,-99.99,,2013-11-21 01:11:00,
2013-11-20 20:22:00,35.0,19.0,30.54,ESE,117,0.0,-999.0,51,-99.99,,,-99.99,,2013-11-21 01:22:00,
2013-11-20 20:42:00,34.0,18.0,30.54,ESE,117,0.0,-999.0,52,-99.99,,,-99.99,,2013-11-21 01:42:00,
2013-11-20 20:52:00,34.0,19.0,30.54,ESE,117,0.0,-999.0,53,-99.99,,,-99.99,,2013-11-21 01:52:00,
2013-11-20 21:22:00,33.0,20.0,30.54,ESE,114,0.0,-999.0,59,-99.99,,,-99.99,,2013-11-21 02:22:00,
2013-11-20 22:22:00,32.0,22.0,30.55,SSE,167,0.0,-999.0,67,-99.99,,,-99.99,,2013-11-21 03:22:00,
2013-11-20 22:43:00,32.0,22.0,30.55,SSE,166,0.0,-999.0,67,-99.99,,,-99.99,,2013-11-21 03:43:00,
2013-11-20 22:54:00,32.0,22.0,30.56,SSE,166,0.0,-999.0,67,-99.99,,,-99.99,,2013-11-21 03:54:00,
2013-11-20 23:13:00,31.0,22.0,30.56,SSE,166,0.0,-999.0,68,-99.99,,,-99.99,,2013-11-21 04:13:00,
2013-11-20 23:23:00,31.0,22.0,30.56,SSE,166,0.0,-999.0,69,-99.99,,,-99.99,,2013-11-21 04:23:00,
2013-11-20 23:53:00,30.0,22.0,30.56,SSE,167,0.0,-999.0,71,-99.99,,,-99.99,,2013-11-21 04:53:00,